Location: Gu�mene
(48.0670°N, 3.2027°W)
Time: 09:47:38
(UTC+00:00)

Daily predictions for brighter satellites

Satellite Brightness Start Highest point End
(mag) Time Altitude Azimuth Time Altitude Azimuth Time Altitude Azimuth
Cosmos 1862 4.1 16:50:31 10° NNW 16:54:27 58° W 16:58:23 10° S
FengYun 1-2 T 4.4 16:49:20 10° SE 16:54:44 53° ENE 17:00:08 10° N
H-2A R/B 3.0 16:51:46 10° ESE 16:55:53 25° ENE 16:59:54 10° N
Cosmos 2034 Rocket 4.2 16:50:01 10° SSE 16:55:55 51° E 17:01:51 10° NNE
ERBS 3.1 16:53:12 10° W 16:56:14 40° NNW 16:59:19 10° NE
MOS 1 Rocket 4.1 16:51:29 10° N 16:56:29 59° WNW 17:01:09 10° SSW
Cosmos 2322 Rocket 4.1 16:55:34 10° NNE 16:57:02 11° NNE 16:58:31 10° NE
USA 306 3.6 16:55:23 10° W 16:59:26 42° NNW 17:03:30 10° ENE
Cosmos 1271 Rocket 3.7 16:57:09 10° SSW 17:01:00 52° WNW 17:04:55 10° N
Meteor 2-19 Rocket 4.4 16:55:06 10° N 17:01:13 76° E 17:07:19 10° SSE
Cosmos 1697 Rocket 2.9 16:56:12 10° NNW 17:01:40 49° NE 17:07:05 10° SE
Cosmos 2369 4.2 16:59:34 10° NNW 17:04:54 37° NE 17:10:11 10° ESE
Cosmos 1980 Rocket 2.9 17:00:16 10° NNW 17:05:18 31° NE 17:10:17 10° ESE
USA 267 3.4 16:58:56 10° NE 17:05:30 75° SE 17:12:02 10° SW
Cosmos 1763 Rocket 3.8 17:02:36 10° S 17:07:24 45° ESE 17:12:16 10° NNE
COSMO-SKYMED 1 4.4 17:05:40 10° ENE 17:07:48 13° E 17:09:55 10° ESE
Cosmos 1939 Rocket 3.0 17:05:19 10° SSE 17:09:19 53° ENE 17:13:19 10° N
SL-24 R/B - RUBIN 2 4.3 17:05:50 10° NNW 17:10:02 32° NE 17:14:00 10° ESE
Meteor 1-25 Rocket 4.3 17:05:34 10° N 17:11:00 52° ENE 17:16:27 10° SSE
SL-16 R/B 3.8 17:11:22 10° N 17:14:41 15° NE 17:17:26 11° ENE
Cosmos 1937 Rocket 3.8 17:09:41 10° NNW 17:14:50 46° ENE 17:19:57 10° SE
Cosmos 1812 4.5 17:13:24 10° ESE 17:15:21 14° E 17:16:32 12° ENE
USA 307 3.7 17:13:44 10° W 17:17:48 40° N 17:21:20 13° ENE
Cosmos 1633 Rocket 4.5 17:15:05 10° NNE 17:18:01 17° ENE 17:20:57 10° ESE
USA 229 DEB 3.9 17:11:53 10° NW 17:19:12 82° NE 17:27:01 10° SE
USA 229 3.9 17:11:58 10° NW 17:19:18 82° NE 17:27:06 10° SE
Cosmos 2082 Rocket 3.3 17:16:00 10° SSE 17:20:30 25° ESE 17:24:27 12° NE
YAOGAN 1 4.5 17:22:20 11° NE 17:22:20 11° NE 17:23:06 10° NE
NOAA 6 4.0 17:17:34 10° SSE 17:22:40 71° ENE 17:27:48 10° N
Cosmos 990 Rocket 4.0 17:18:16 10° NNW 17:23:30 88° WSW 17:28:40 10° SSE
Cosmos 2026 Rocket 4.1 17:17:50 10° N 17:23:48 49° ENE 17:29:39 10° SSE
Cosmos 1408 Rocket 4.1 17:19:47 10° NNW 17:24:06 61° W 17:28:25 10° S
SeaSat 1 4.4 17:21:25 10° N 17:25:08 22° NW 17:28:49 10° W
Cosmos 2195 Rocket 4.5 17:21:00 10° N 17:27:05 61° ENE 17:33:12 10° SSE
Meteor PRIRODA 4.4 17:23:31 10° S 17:27:06 56° W 17:30:41 10° NNW
ATLAS 2AS CENTAUR R/B 4.2 17:20:44 10° WNW 17:27:11 27° NNW 17:33:22 10° NE
CZ-4B DEB 4.2 17:21:52 10° SSE 17:27:18 62° ENE 17:32:44 10° N
CORIOLIS 4.1 17:22:01 10° SSE 17:27:23 70° ENE 17:32:48 10° N
USA 276 3.5 17:25:10 10° W 17:28:07 38° SSW 17:31:03 10° SE
Cosmos 372 Rocket 4.4 17:24:12 10° N 17:29:07 40° ENE 17:34:03 10° SE
Cosmos 2278 4.3 17:24:08 10° NNW 17:29:19 34° NE 17:34:28 10° ESE
Cosmos 1602 3.8 17:25:55 10° N 17:29:42 51° ENE 17:33:28 10° SSE
Okean O Rocket 2.6 17:26:59 10° ESE 17:30:39 26° ENE 17:34:20 10° N
Cosmos 1743 Rocket 3.5 17:27:30 10° N 17:31:51 88° E 17:36:11 10° S
ATLAS CENTAUR R/B 3.6 17:29:00 10° WNW 17:32:09 19° NNW 17:35:27 10° NNE
Cosmos 1782 3.3 17:32:20 10° SSE 17:36:02 37° E 17:39:44 10° NNE
Meteor 2-14 Rocket 4.5 17:30:01 10° N 17:36:02 56° ENE 17:42:00 10° SSE
Cosmos 1151 Rocket 4.2 17:32:44 10° SE 17:36:08 23° E 17:38:07 17° NE
COSMOS 2406 3.4 17:32:19 10° S 17:37:53 53° ESE 17:43:04 12° NE
COSMOS 2455 3.4 17:34:05 10° S 17:39:37 40° ESE 17:43:55 16° NE
USA 234 3.5 17:33:16 10° SE 17:39:49 76° SW 17:46:23 10° NW
USA 308 3.8 17:36:22 10° WNW 17:40:21 37° N 17:42:51 19° NE
NOSS 3-1 (A) 4.4 17:35:17 10° NW 17:42:45 75° SW 17:51:29 10° SSE
Cosmos 1666 Rocket 4.2 17:39:07 10° N 17:43:12 34° ENE 17:47:13 10° SE
ARGOS 3.6 17:39:20 10° SE 17:44:19 39° ENE 17:49:19 10° N
Cosmos 1833 Rocket 2.6 17:38:47 10° SSW 17:44:22 75° ESE 17:49:48 11° NNE
Cosmos 1340 Rocket 3.9 17:42:02 10° NNW 17:45:59 48° W 17:49:55 10° S
Cosmos 858 Rocket 4.4 17:41:30 10° NNW 17:46:49 75° ENE 17:52:05 10° SSE
ISS -3.8 17:45:05 10° WNW 17:48:29 68° NNE 17:50:10 27° E
NOSS 2-2 (D) 4.2 17:44:18 10° NW 17:49:18 68° NE 17:56:18 10° SE
NOSS 2-2 (E) 4.3 17:44:40 10° NW 17:49:52 80° NE 17:57:13 10° SE
Cosmos 1809 Rocket 4.4 17:45:35 10° N 17:51:44 84° E 17:57:48 10° S
CZ-2D R/B 3.1 17:47:59 10° SSE 17:51:49 73° ENE 17:55:38 10° N
PAYLOAD B 4.2 17:48:42 10° SSE 17:54:18 80° ENE 17:59:56 10° NNW
Lacrosse 5 rocket 2.2 17:51:56 10° NW 17:55:26 31° NNE 17:56:30 27° NE
SKYMED 2 4.1 17:53:45 20° NE 17:56:18 38° E 18:00:20 10° SSE
CZ-4 R/B 3.7 17:59:48 10° NNE 17:59:48 10° NNE 17:59:49 10° NNE
Meteor 2-21 Rocket 4.4 17:51:46 10° N 17:57:49 61° ENE 18:03:48 10° SSE
Landsat 5 4.2 18:00:26 29° E 18:00:36 29° E 18:04:07 10° SSE
ATLAS CENTAUR R/B 2.8 17:51:06 10° SW 18:00:54 86° SE 18:03:22 27° NE
CZ-4B R/B 3.1 17:55:52 10° SSE 18:01:13 64° ENE 18:06:31 10° N
Cosmos 1500 3.0 18:00:17 10° N 18:04:04 83° E 18:07:47 10° S
SL-08 RB Rocket 4.2 17:59:49 10° SE 18:04:05 37° ENE 18:08:19 10° N
Cosmos 540 Rocket 3.3 17:59:04 10° SSW 18:04:10 81° ESE 18:08:24 15° NNE
CZ-2C R/B 2.7 17:59:22 10° NNE 18:04:20 49° E 18:09:19 10° S
GEOS 3 Rocket 4.0 18:02:08 23° E 18:05:02 44° NE 18:09:57 10° NNW
Cosmos 1818 4.0 18:01:44 10° NNW 18:06:55 40° NE 18:09:02 29° E
SMAP 4.2 18:02:29 10° S 18:06:57 45° W 18:11:27 10° NNW
Meteor 1-11 Rocket 4.5 18:02:37 10° N 18:07:25 28° ENE 18:07:51 28° ENE
USA 305 3.7 18:03:46 10° WNW 18:07:43 36° N 18:08:55 30° NE
Cosmos 1814 Rocket 4.3 18:03:07 10° S 18:08:02 43° ESE 18:10:08 29° NE
Cosmos 44 Rocket 3.8 18:06:06 10° NNW 18:10:44 38° NE 18:11:46 34° ENE
CZ-4C R/B 2.9 18:04:01 10° NW 18:11:02 68° NE 18:19:21 10° SE
Meteor 1-26 Rocket 4.3 18:05:40 10° S 18:11:37 85° E 18:17:43 10° NNE
Cosmos 1805 Rocket 4.2 18:08:01 10° NNW 18:12:16 56° W 18:16:30 10° S
Cosmos 1933 4.0 18:08:45 10° SSW 18:12:44 55° WNW 18:16:43 10° N
Sich 1 3.3 18:08:31 10° NNW 18:12:48 70° W 18:17:05 10° S
MOS 1-B 4.4 18:08:38 10° SSE 18:14:25 79° WSW 18:20:14 10° NNW
Feng Yun 1-1 Rocket 4.5 18:14:23 10° SE 18:20:06 53° ENE 18:25:47 10° N
Cosmos 2360 Rocket 3.7 18:19:03 10° N 18:22:13 20° NNE 18:22:13 20° NNE
deb Chang Zheng 4 3.6 18:24:00 10° SSE 18:28:18 80° WSW 18:32:38 10° NNW
ERBS 4.4 18:30:33 10° NW 18:32:20 17° NNW 18:32:20 17° NNW
Cosmos 2208 Rocket 4.2 18:27:50 10° S 18:33:01 50° ESE 18:33:46 46° ENE
Cosmos 1666 2.6 18:29:57 10° NNW 18:33:43 81° W 18:37:24 10° S
H-2A R/B 2.8 18:29:57 10° S 18:35:01 53° W 18:39:59 10° NNW
Cosmos 2142 Rocket 4.4 18:31:17 10° S 18:37:27 88° W 18:43:43 10° N
Cosmos 2150 Rocket 4.2 18:32:28 10° NNW 18:37:02 46° NE 18:37:02 46° NE
Meteor 1-14 Rocket 4.4 18:33:58 10° NNW 18:39:47 75° W 18:45:41 10° S
USA 306 3.7 18:35:56 10° WNW 18:39:44 39° N 18:39:44 39° N
SJ-11-01 4.5 18:36:39 10° S 18:41:23 72° WSW 18:46:09 10° NNW
Cosmos 2322 Rocket 2.9 18:37:37 10° NNW 18:41:55 34° NNE 18:41:55 34° NNE
COSMO-SKYMED 1 2.7 18:42:21 30° N 18:44:28 72° WNW 18:48:47 10° SSW
Cosmos 2279 Rocket 4.0 18:40:51 10° SSW 18:47:04 80° W 18:53:19 10° N
USA 267 3.7 18:45:34 32° NE 18:48:22 52° NNW 18:54:39 10° W
Cosmos 1980 Rocket 2.9 18:44:05 10° NW 18:49:35 53° WSW 18:55:02 10° S
Cosmos 1812 3.4 18:46:53 10° SSW 18:50:38 52° WNW 18:51:37 40° NNW
Cosmos 2266 Rocket 3.9 18:44:17 10° N 18:50:41 70° E 18:57:04 10° SSE
Spot 2 4.3 18:51:14 25° SSE 18:54:20 80° ENE 18:59:30 10° NNW
Cosmos 841 Rocket 4.2 18:49:35 10° SW 18:54:36 52° WNW 18:57:22 25° N
Cosmos 1633 Rocket 3.7 18:51:54 10° NNW 18:56:10 54° W 19:00:26 10° S
YAOGAN 1 4.2 18:59:29 24° NNW 18:59:29 24° NNW 19:01:17 10° NNW
USA 307 4.0 18:54:16 10° WNW 18:57:22 35° NNW 18:57:22 35° NNW
Cosmos 1125 Rocket 3.8 18:53:19 10° NNW 18:57:27 51° NNE 18:57:27 51° NNE
SL-16 R/B 2.3 18:54:24 10° NNW 18:59:21 55° NNE 18:59:21 55° NNE
Meteor 2-15 Rocket 4.3 18:56:47 10° S 19:02:51 69° E 19:03:21 65° ENE
Cosmos 2082 Rocket 2.6 18:58:32 10° SW 19:04:09 60° WNW 19:06:20 36° N
Okean O Rocket 2.9 19:02:38 10° SSW 19:06:49 40° W 19:11:02 10° NNW
Cosmos 2333 Rocket 4.1 19:04:22 10° N 19:06:12 17° N 19:06:12 17° N
ATLAS CENTAUR R/B 4.3 19:12:13 10° NNW 19:12:21 10° N 19:12:21 10° N
Cosmos 1151 Rocket 4.4 19:09:26 10° SW 19:13:28 37° WNW 19:15:02 28° NNW
ATLAS 2AS CENTAUR R/B 4.1 19:14:34 10° NW 19:20:39 25° N 19:20:53 25° NNE
Cosmos 1655 Rocket 4.2 19:15:48 10° NNW 19:22:10 70° W 19:28:28 10° S
ISS -0.8 19:22:08 10° W 19:23:11 17° W 19:23:11 17° W
COSMOS 2455 3.7 19:19:44 10° WSW 19:25:30 46° NW 19:27:05 38° N
Lacrosse 5 rocket 3.7 19:30:51 10° NW 19:32:06 20° WNW 19:32:06 20° WNW
Cosmos 2219 Rocket 4.4 19:33:09 10° NNW 19:34:05 14° N 19:34:05 14° N
CZ-2C R/B 4.4 19:40:54 14° NNW 19:44:22 27° WNW 19:48:38 10° WSW
ATLAS 5 CENTAUR R/B 4.3 19:44:32 10° NW 19:47:04 22° WNW 19:47:04 22° WNW
CZ-4C R/B 4.2 19:52:48 10° NW 19:59:33 38° WSW 20:05:33 16° S
Cosmos 2360 Rocket 4.2 20:02:22 10° NNW 20:04:00 20° NNW 20:04:00 20° NNW
Cosmos 2322 Rocket 4.3 20:21:40 10° NW 20:23:46 22° NW 20:23:46 22° NW
